Date String (YYYY-MM-DD hh:mm:ss) UTC,Instrument flags,Ambient pressure (hPa),Sample flow (lpm),Bypass flow (lpm),Sample temperature (°C),Ambient temperature (°C),ASC tube jacket temperature (°C),LED temperature (°C),Box temperature (°C),Sample RH (%),Span deviation,Mass concentration (μg/m³),Mass concentration (μg/m³),Mass concentration (μg/m³)
DateTimeUTC,F1_M11,P_M11,Q1_M11,Q2_M11,T1_M11,T2_M11,T3_M11,T4_M11,T5_M11,U1_M11,ZSPAN_M11,X0_M11,X2_M11,X1_M11
2022-06-23 12:00:00,,0826.7,5.00,0.00,30.4,29.3,00.0,39.2,32.2,13.9,0000.0,0010.67,0004.79,0003.85
2022-06-23 12:01:00,,0826.7,5.00,0.00,30.4,29.3,00.0,39.2,32.2,13.9,0000.0,0010.19,0004.82,0003.86
2022-06-23 12:02:00,,0826.8,5.00,0.00,30.4,29.4,00.0,39.2,32.2,13.9,0000.0,0010.02,0004.81,0003.88
2022-06-23 12:03:00,,0826.8,5.00,0.00,30.4,29.4,00.0,39.2,32.2,13.9,0000.0,0010.26,0004.79,0003.89
2022-06-23 12:04:00,,0826.8,5.00,0.00,30.4,29.4,00.0,39.2,32.2,13.9,0000.0,0011.03,0004.81,0003.91
2022-06-23 12:05:00,,0826.8,4.98,0.00,30.4,29.4,00.0,39.2,32.2,13.8,0000.0,0011.70,0004.86,0003.92
2022-06-23 12:06:00,,0826.8,5.01,0.00,30.4,29.4,00.0,39.2,32.2,13.7,0000.0,0011.75,0004.88,0003.93
2022-06-23 12:07:00,,0826.8,5.01,0.00,30.4,29.4,00.0,39.2,32.2,13.7,0000.0,0012.08,0004.91,0003.94
2022-06-23 12:08:00,,0826.8,5.01,0.00,30.4,29.4,00.0,39.2,32.2,13.7,0000.0,0012.41,0004.93,0003.95
2022-06-23 12:09:00,,0826.9,5.00,0.00,30.4,29.4,00.0,39.3,32.2,13.6,0000.0,0012.41,0004.94,0003.94
2022-06-23 12:10:00,,0826.8,4.99,0.00,30.4,29.4,00.0,39.3,32.2,13.7,0000.0,0012.59,0004.92,0003.93
2022-06-23 12:11:00,,0826.8,4.99,0.00,30.4,29.4,00.0,39.3,32.2,13.8,0000.0,0012.19,0004.94,0003.94
2022-06-23 12:12:00,,0826.8,5.01,0.00,30.5,29.4,00.0,39.3,32.2,13.9,0000.0,0012.54,0004.97,0003.95
2022-06-23 12:13:00,,0826.8,5.01,0.00,30.5,29.4,00.0,39.3,32.3,13.9,0000.0,0013.34,0005.01,0003.94
2022-06-23 12:14:00,,0826.8,4.99,0.00,30.5,29.4,00.0,39.3,32.3,14.0,0000.0,0013.67,0005.07,0003.94
2022-06-23 12:15:00,,0827.0,4.99,0.00,30.5,29.4,00.0,39.3,32.3,13.9,0000.0,0013.31,0005.16,0003.93
2022-06-23 12:16:00,,0827.1,5.01,0.00,30.5,29.4,00.0,39.3,32.3,13.8,0000.0,0013.66,0005.13,0003.92
2022-06-23 12:17:00,,0827.1,5.01,0.00,30.5,29.0,00.0,39.3,32.2,14.0,0000.0,0013.66,0005.12,0003.93
2022-06-23 12:18:00,,0827.1,4.99,0.00,30.4,27.9,00.0,39.2,32.0,14.4,0000.0,0013.94,0005.12,0003.93
2022-06-23 12:19:00,,0827.1,5.01,0.00,30.3,27.5,00.0,39.1,31.8,14.3,0000.0,0013.77,0005.13,0003.93
2022-06-23 12:20:00,,0827.1,4.99,0.00,30.2,27.4,00.0,39.1,31.7,14.3,0000.0,0014.09,0005.13,0003.93
2022-06-23 12:21:00,,0826.9,5.00,0.00,30.1,27.5,00.0,39.0,31.6,14.4,0000.0,0013.91,0005.13,0003.92
2022-06-23 12:22:00,,0826.8,5.00,0.00,30.0,27.6,00.0,39.0,31.6,14.3,0000.0,0013.77,0005.12,0003.91
2022-06-23 12:23:00,,0827.1,4.99,0.00,30.0,27.7,00.0,39.0,31.6,14.3,0000.0,0013.56,0005.12,0003.91
2022-06-23 12:24:00,,0827.1,4.99,0.00,29.9,27.9,00.0,38.9,31.6,14.4,0000.0,0014.12,0005.16,0003.91
2022-06-23 12:25:00,,0827.0,5.00,0.00,29.9,28.0,00.0,38.9,31.6,14.4,0000.0,0013.91,0005.14,0003.91
2022-06-23 12:26:00,,0826.8,5.00,0.00,29.9,28.1,00.0,38.9,31.6,14.3,0000.0,0013.84,0005.05,0003.91
2022-06-23 12:27:00,,0827.0,5.00,0.00,29.9,28.2,00.0,38.9,31.6,14.3,0000.0,0013.90,0005.09,0003.92
2022-06-23 12:28:00,,0826.9,5.00,0.00,29.9,28.3,00.0,38.8,31.6,14.3,0000.0,0014.87,0005.13,0003.93
2022-06-23 12:29:00,,0827.1,5.00,0.00,29.9,28.4,00.0,38.8,31.7,14.3,0000.0,0015.08,0005.18,0003.94
2022-06-23 12:30:00,,0826.9,5.01,0.00,29.9,28.5,00.0,38.8,31.7,14.4,0000.0,0015.22,0005.20,0003.94
2022-06-23 12:31:00,,0827.1,4.99,0.00,29.9,28.5,00.0,38.8,31.7,14.7,0000.0,0015.21,0005.20,0003.93
2022-06-23 12:32:00,,0827.2,5.00,0.00,29.9,28.6,00.0,38.8,31.7,14.5,0000.0,0015.63,0005.19,0003.95
2022-06-23 12:33:00,,0827.3,5.01,0.00,29.9,28.6,00.0,38.8,31.7,14.3,0000.0,0015.70,0005.20,0003.95
2022-06-23 12:34:00,,0827.0,5.00,0.00,29.9,28.7,00.0,38.8,31.8,14.2,0000.0,0015.90,0005.20,0003.95
2022-06-23 12:35:00,,0827.0,4.99,0.00,29.9,28.7,00.0,38.8,31.7,14.3,0000.0,0015.15,0005.13,0003.94
2022-06-23 12:36:00,,0826.9,5.00,0.00,29.9,28.7,00.0,38.8,31.8,14.4,0000.0,0015.33,0005.11,0003.94
2022-06-23 12:37:00,,0827.1,5.00,0.00,30.0,28.8,00.0,38.8,31.7,14.4,0000.0,0016.33,0005.13,0003.94
2022-06-23 12:38:00,,0827.0,5.01,0.00,30.0,28.8,00.0,38.8,31.8,14.2,0000.0,0016.02,0005.12,0003.93
2022-06-23 12:39:00,,0827.3,5.00,0.00,30.0,28.8,00.0,38.8,31.8,14.1,0000.0,0015.44,0005.13,0003.92
2022-06-23 12:40:00,,0827.0,5.00,0.00,30.0,28.9,00.0,38.8,31.8,14.1,0000.0,0014.59,0005.13,0003.92
2022-06-23 12:41:00,,0827.1,5.00,0.00,30.0,28.9,00.0,38.8,31.9,14.1,0000.0,0014.77,0005.13,0003.92
2022-06-23 12:42:00,,0827.0,5.00,0.00,30.0,28.9,00.0,38.8,31.9,14.3,0000.0,0015.38,0005.11,0003.93
2022-06-23 12:43:00,,0826.9,4.99,0.00,30.0,28.9,00.0,38.9,31.9,14.1,0000.0,0014.80,0005.11,0003.91
2022-06-23 12:44:00,,0826.8,4.99,0.00,30.0,29.0,00.0,38.9,31.9,14.0,0000.0,0014.81,0005.11,0003.90
2022-06-23 12:45:00,,0826.8,5.00,0.00,30.0,29.0,00.0,38.9,31.9,14.6,0000.0,0014.88,0005.12,0003.90
2022-06-23 12:46:00,,0827.0,5.01,0.00,30.1,29.0,00.0,38.9,31.9,14.3,0000.0,0015.28,0005.17,0003.91
2022-06-23 12:47:00,,0826.9,5.01,0.00,30.1,29.0,00.0,38.9,31.9,14.1,0000.0,0015.44,0005.18,0003.91
2022-06-23 12:48:00,,0826.8,5.00,0.00,30.1,29.0,00.0,38.9,31.9,13.9,0000.0,0014.30,0005.10,0003.90
2022-06-23 12:49:00,,0827.0,5.00,0.00,30.1,29.1,00.0,38.9,31.9,14.2,0000.0,0014.55,0005.06,0003.91
2022-06-23 12:50:00,,0827.1,4.99,0.00,30.1,29.1,00.0,38.9,32.0,14.3,0000.0,0015.91,0004.97,0003.92
2022-06-23 12:51:00,,0827.3,4.99,0.00,30.1,29.1,00.0,38.9,32.0,14.3,0000.0,0015.54,0004.90,0003.90
2022-06-23 12:52:00,,0827.1,5.00,0.00,30.1,29.1,00.0,38.9,32.0,14.9,0000.0,0015.38,0004.87,0003.91
2022-06-23 12:53:00,,0827.2,5.01,0.00,30.1,29.1,00.0,39.0,32.0,15.9,0000.0,0015.47,0004.87,0003.92
2022-06-23 12:54:00,,0826.9,5.00,0.00,30.2,29.1,00.0,39.0,32.0,15.2,0000.0,0016.44,0004.88,0003.94
2022-06-23 12:55:00,,0826.8,5.00,0.00,30.2,29.1,00.0,39.0,32.0,15.2,0000.0,0017.24,0004.90,0003.95
2022-06-23 12:56:00,,0826.8,5.00,0.00,30.2,29.2,00.0,39.0,32.0,15.7,0000.0,0017.96,0004.91,0003.96
2022-06-23 12:57:00,,0826.8,5.00,0.00,30.2,29.2,00.0,39.0,32.0,14.8,0000.0,0017.24,0004.87,0003.97
2022-06-23 12:58:00,,0826.8,5.00,0.00,30.2,29.2,00.0,39.0,32.0,14.5,0000.0,0016.12,0004.81,0003.97
2022-06-23 12:59:00,,0826.8,5.00,0.00,30.2,29.2,00.0,39.0,32.0,14.3,0000.0,0015.95,0004.85,0003.99
